GW0468 Weather Reports


time (UTC)temp
C
wind
direction
speed
KPH
gust
KPH
rain 1hr
cm
rain 24hr
cm
rain mn
cm
humidity
%
barometer
mb
20260504100506 -17 0.0 0.0 0.00 0.00 0.00 1014.3
20260504081946 16 128 0.0 1.6 0.00 0.00 0.00 1 1015.2
20260504081444 16 128 0.0 1.6 0.00 0.00 0.00 1 1015.3
20260504080946 16 140 0.0 3.2 0.00 0.00 0.00 1 1015.4
20260504050434 17 127 1.6 4.8 0.00 0.00 0.00 14 1017.4
20260504045936 17 127 1.6 4.8 0.00 0.00 0.00 13 1017.4
20260504045435 17 144 0.0 1.6 0.00 0.00 0.00 13 1017.7
20260504044935 17 151 0.0 4.8 0.00 0.00 0.00 17 1017.7
20260504044433 17 135 1.6 4.8 0.00 0.00 0.00 22 1017.7
20260504043936 17 130 3.2 4.8 0.00 0.00 0.00 22 1017.7
20260504043434 17 134 1.6 3.2 0.00 0.00 0.00 21 1017.8
20260504042433 17 138 1.6 4.8 0.00 0.00 0.00 22 1017.8
20260504041433 17 164 1.6 3.2 0.00 0.00 0.00 28 1017.8
20260504040935 17 133 0.0 3.2 0.00 0.00 0.00 29 1017.7
20260504040433 17 135 0.0 1.6 0.00 0.00 0.00 35 1017.8
20260504035936 17 134 0.0 1.6 0.00 0.00 0.00 37 1018.0
20260504035432 17 134 0.0 1.6 0.00 0.00 0.00 36 1018.1
20260504034433 18 134 0.0 3.2 0.00 0.00 0.00 38 1017.9
20260504033433 18 133 1.6 4.8 0.00 0.00 0.00 44 1017.8
20260504032935 18 137 1.6 3.2 0.00 0.00 0.00 44 1017.8
20260504032432 18 142 0.0 1.6 0.00 0.00 0.00 45 1017.8
20260504031934 18 142 0.0 1.6 0.00 0.00 0.00 47 1017.8
20260504031432 18 151 0.0 1.6 0.00 0.00 0.00 48 1017.9
20260504030934 18 151 0.0 3.2 0.00 0.00 0.00 50 1017.9
20260504030432 18 158 0.0 3.2 0.00 0.00 0.00 53 1017.9
20260504025934 18 141 0.0 3.2 0.00 0.00 0.00 54 1017.8
20260504025431 18 142 1.6 3.2 0.00 0.00 0.00 56 1017.6
20260504024933 19 137 1.6 3.2 0.00 0.00 0.00 57 1017.8
20260504023934 19 142 1.6 8.0 0.00 0.00 0.00 59 1017.8
20260504023430 19 142 1.6 8.0 0.00 0.00 0.00 60 1017.6
20260504022935 19 158 3.2 8.0 0.00 0.00 0.00 61 1017.6
20260504021431 20 138 3.2 8.0 0.00 0.00 0.00 61 1017.2
20260504020431 20 135 3.2 4.8 0.00 0.00 0.00 60 1017.3
20260504015933 20 147 0.0 4.8 0.00 0.00 0.00 61 1017.2
20260504015431 20 130 1.6 6.4 0.00 0.00 0.00 62 1017.2
20260504014932 20 152 3.2 11.3 0.00 0.00 0.00 62 1017.2
20260504014429 20 155 3.2 11.3 0.00 0.00 0.00 63 1017.1
20260504013930 20 171 3.2 8.0 0.00 0.00 0.00 63 1017.1
20260504013429 20 133 3.2 6.4 0.00 0.00 0.00 63 1017.0
20260504012933 21 131 3.2 8.0 0.00 0.00 0.00 63 1017.0
20260504012427 21 133 4.8 9.7 0.00 0.00 0.00 63 1017.1
20260504011931 21 166 4.8 9.7 0.00 0.00 0.00 63 1017.1
20260504011429 21 145 3.2 8.0 0.00 0.00 0.00 62 1017.0
20260504010932 21 151 4.8 8.0 0.00 0.00 0.00 62 1016.9
20260504010430 21 155 4.8 8.0 0.00 0.00 0.00 62 1017.0
20260504005931 22 134 3.2 9.7 0.00 0.00 0.00 62 1016.9
20260504005428 22 124 3.2 9.7 0.00 0.00 0.00 61 1017.1
20260504004930 22 133 3.2 14.5 0.00 0.00 0.00 60 1017.1
20260504004428 22 159 3.2 16.1 0.00 0.00 0.00 57 1017.0
20260504003930 23 142 6.4 16.1 0.00 0.00 0.00 57 1017.2
20260504003429 23 148 6.4 14.5 0.00 0.00 0.00 57 1017.1
20260504002931 23 128 8.0 16.1 0.00 0.00 0.00 56 1017.0
20260504002429 23 135 8.0 16.1 0.00 0.00 0.00 56 1017.0
20260504001928 23 157 8.0 14.5 0.00 0.00 0.00 56 1017.2
20260504001427 23 142 6.4 16.1 0.00 0.00 0.00 56 1017.2
20260504000930 24 186 6.4 16.1 0.00 0.00 0.00 56 1017.2
20260504000427 24 155 8.0 17.7 0.00 0.00 0.00 55 1017.1
20260503235931 24 169 8.0 19.3 0.00 0.00 0.00 54 1017.2
20260503235427 24 147 8.0 19.3 0.00 0.00 0.00 54 1017.1
20260503234930 24 154 9.7 22.5 0.00 0.00 0.00 54 1017.2
20260503234428 24 147 11.3 22.5 0.00 0.00 0.00 53 1017.1
20260503233928 25 149 14.5 22.5 0.00 0.00 0.00 53 1017.1
20260503232930 25 162 9.7 17.7 0.00 0.00 0.00 53 1017.0
20260503231927 25 152 8.0 22.5 0.00 0.00 0.00 53 1017.0
20260503231428 25 169 11.3 17.7 0.00 0.00 0.00 49 1017.2
20260503230927 25 137 9.7 16.1 0.00 0.00 0.00 50 1017.1
20260503230427 25 172 9.7 20.9 0.00 0.00 0.00 48 1017.1
20260503225929 25 173 12.9 20.9 0.00 0.00 0.00 44 1017.2
20260503225426 25 131 12.9 20.9 0.00 0.00 0.00 43 1017.4
20260503224928 25 127 6.4 20.9 0.00 0.00 0.00 42 1017.4
20260503224426 26 130 9.7 17.7 0.00 0.00 0.00 43 1017.4
20260503223928 26 102 8.0 16.1 0.00 0.00 0.00 44 1017.4
20260503223427 26 103 8.0 20.9 0.00 0.00 0.00 43 1017.5
20260503222929 25 169 8.0 20.9 0.00 0.00 0.00 42 1017.4
20260503222424 25 80 8.0 17.7 0.00 0.00 0.00 40 1017.4
20260503221424 26 166 9.7 20.9 0.00 0.00 0.00 41 1017.7
20260503220926 26 125 6.4 22.5 0.00 0.00 0.00 42 1017.7
20260503220425 26 152 14.5 22.5 0.00 0.00 0.00 41 1017.8
20260503215425 26 117 16.1 22.5 0.00 0.00 0.00 42 1017.7
20260503214426 26 128 8.0 17.7 0.00 0.00 0.00 37 1017.9
20260503213925 26 89 3.2 14.5 0.00 0.00 0.00 36 1018.0
20260503213425 26 159 6.4 17.7 0.00 0.00 0.00 38 1018.1
20260503212928 26 138 8.0 17.7 0.00 0.00 0.00 42 1018.2
20260503212425 26 140 6.4 14.5 0.00 0.00 0.00 42 1018.2
20260503211925 26 204 4.8 14.5 0.00 0.00 0.00 39 1018.3
20260503211424 26 159 6.4 19.3 0.00 0.00 0.00 40 1018.3
20260503210925 26 141 8.0 19.3 0.00 0.00 0.00 40 1018.4
20260503210425 26 180 9.7 19.3 0.00 0.00 0.00 40 1018.5
20260503205926 26 159 8.0 16.1 0.00 0.00 0.00 39 1018.7
20260503205423 26 99 4.8 16.1 0.00 0.00 0.00 40 1018.8
20260503204926 26 120 4.8 14.5 0.00 0.00 0.00 40 1018.7
20260503204423 26 162 6.4 16.1 0.00 0.00 0.00 39 1018.8
20260503203925 26 157 9.7 16.1 0.00 0.00 0.00 40 1019.0
20260503203423 26 111 9.7 16.1 0.00 0.00 0.00 40 1019.0
20260503202423 26 244 1.6 11.3 0.00 0.00 0.00 41 1019.2
20260503201924 26 96 6.4 19.3 0.00 0.00 0.00 41 1019.3
20260503200925 26 94 4.8 20.9 0.00 0.00 0.00 40 1019.4
20260503200423 26 137 6.4 20.9 0.00 0.00 0.00 42 1019.5
20260503195924 26 180 4.8 17.7 0.00 0.00 0.00 42 1019.4
20260503195423 26 110 9.7 17.7 0.00 0.00 0.00 40 1019.6
20260503194924 26 189 6.4 16.1 0.00 0.00 0.00 41 1019.6
20260503194422 26 221 6.4 17.7 0.00 0.00 0.00 44 1019.6
20260503193924 26 154 9.7 17.7 0.00 0.00 0.00 43 1019.7
20260503193423 26 179 3.2 14.5 0.00 0.00 0.00 40 1019.7
20260503192925 26 128 9.7 19.3 0.00 0.00 0.00 42 1019.9
20260503192421 26 204 6.4 19.3 0.00 0.00 0.00 43 1019.9
20260503191422 26 159 6.4 17.7 0.00 0.00 0.00 42 1020.1
20260503190923 26 168 4.8 11.3 0.00 0.00 0.00 42 1020.2
20260503190421 26 80 8.0 9.7 0.00 0.00 0.00 45 1020.1
20260503185924 25 134 4.8 11.3 0.00 0.00 0.00 44 1020.1
20260503185420 26 144 4.8 16.1 0.00 0.00 0.00 44 1020.2
20260503184922 25 155 9.7 16.1 0.00 0.00 0.00 45 1020.4
20260503184421 25 66 4.8 11.3 0.00 0.00 0.00 44 1020.6
20260503183421 25 109 8.0 20.9 0.00 0.00 0.00 46 1020.7
20260503182922 25 100 12.9 20.9 0.00 0.00 0.00 46 1020.8
20260503182421 25 73 9.7 14.5 0.00 0.00 0.00 45 1020.8
20260503181920 25 109 3.2 16.1 0.00 0.00 0.00 44 1020.9
20260503181420 25 79 6.4 22.5 0.00 0.00 0.00 46 1021.0
20260503175921 25 180 6.4 14.5 0.00 0.00 0.00 43 1021.4
20260503175420 25 161 8.0 14.5 0.00 0.00 0.00 46 1021.5
20260503174922 25 110 8.0 16.1 0.00 0.00 0.00 46 1021.6
20260503172921 25 159 6.4 14.5 0.00 0.00 0.00 43 1021.7
20260503172420 24 298 1.6 20.9 0.00 0.00 0.00 43 1021.8
20260503171921 25 120 14.5 20.9 0.00 0.00 0.00 46 1021.9
20260503171420 25 166 8.0 11.3 0.00 0.00 0.00 42 1022.0
20260503170920 25 106 1.6 11.3 0.00 0.00 0.00 42 1022.0
20260503170419 25 116 4.8 8.0 0.00 0.00 0.00 44 1022.1
20260503150917 23 128 0.0 0.0 0.00 0.00 0.00 56 1022.4
20260503150417 22 166 0.0 0.0 0.00 0.00 0.00 60 1022.4
20260503130914 16 303 0.0 0.0 0.00 0.00 0.00 1 1021.7
20260503110735 -17 0.0 0.0 0.00 0.00 0.00 1020.3